Zurück zum Katalog

STARLINK-30981

AktivKommunikationVLEO
NORAD 58494·PAYLOAD·🇺🇸 United States

Gestartet Dec 3, 2023 von Cape Canaveral Space Force Station

Loading…

Nächste Überflüge (nächste 24 Stunden)

TLE

AktuellSource: CelesTrak SupGP

Epoche: Sep 15, 2026, 03:06 UTC

1 58494C 23186X   26258.12965278 -.00025337  00000+0 -91748-3 0  2584
2 58494  43.0034  73.5099 0001484 269.6863  24.7104 15.27599465    18

Verfolge STARLINK-30981 in Echtzeit mit AllMySat

Download on the App Store